Theta_e
347 346 344 345 347 343 342 341 335 327 329 339 339 354 356 358 355 352 349 348 347 346 345 345 346 349 350 349 346 345 344 344 344 344 345 345 347 346
349 347 347 348 348 347 347 344 339 334 331 336 339 350 355 356 356 355 352 348 346 345 343 342 344 345 346 344 342 341 341 341 341 341 342 343 344 344
349 348 348 349 347 345 345 347 345 342 335 338 343 350 349 351 352 354 354 347 346 342 342 341 341 342 342 340 339 338 338 338 338 339 342 341 341 341
347 348 348 351 347 348 349 346 344 343 342 338 340 343 348 350 350 349 351 352 344 342 339 338 338 337 337 336 334 334 333 334 336 337 338 338 337 337
349 349 348 348 347 347 347 346 346 347 344 342 341 343 343 348 348 350 349 348 346 342 338 336 335 335 333 331 329 328 325 326 328 330 331 332 332 333
351 351 351 350 346 346 348 346 345 344 343 341 340 341 342 344 347 343 342 341 335 342 341 337 336 335 332 329 328 326 322 322 322 323 324 326 327 329
352 353 353 349 348 347 348 346 345 344 342 340 339 338 339 339 339 341 341 343 338 338 334 331 330 330 330 330 331 330 324 322 320 320 319 320 320 321
347 350 351 349 348 343 341 341 345 345 343 342 341 338 339 340 340 338 338 338 333 342 336 330 330 326 328 328 329 326 323 322 321 319 318 317 317 317
342 343 346 350 344 343 338 337 337 334 337 342 341 341 340 341 339 337 337 337 333 338 338 330 332 325 328 329 326 323 321 320 319 318 317 316 315 314
329 330 329 330 330 331 330 330 331 332 335 340 337 341 343 345 342 342 339 338 339 340 341 329 326 318 318 321 323 321 320 318 317 315 313 311 310 310
324 324 325 325 326 324 325 325 325 325 328 327 328 329 330 330 334 340 339 335 335 334 338 324 318 313 313 313 316 317 314 314 312 312 311 310 309 309
319 319 322 319 316 317 317 316 315 318 321 321 322 325 329 332 331 337 340 335 329 328 329 317 315 313 307 311 310 310 310 310 309 309 309 309 309 308
313 314 316 318 315 314 314 314 315 318 318 317 319 321 323 328 336 340 341 342 330 326 330 323 318 313 308 305 307 307 307 307 308 308 308 307 307 308
312 315 318 315 312 312 313 315 315 316 317 316 317 319 319 323 331 333 334 334 335 332 331 323 316 311 307 304 303 306 306 308 309 308 308 308 307 307
314 316 314 312 311 313 315 315 315 314 314 315 316 318 324 328 327 327 328 328 327 330 327 323 319 313 311 306 303 304 303 306 310 310 310 310 310 310
316 316 316 316 316 317 317 318 318 317 316 316 317 322 327 325 325 327 324 322 320 317 320 325 321 317 311 307 306 304 306 305 310 311 311 312 313 313
307 317 318 319 319 320 322 321 319 317 318 319 319 323 324 325 325 325 321 319 317 315 314 315 316 315 312 309 305 306 308 310 311 312 312 312 316 318
314 315 315 316 316 317 316 318 319 321 321 321 322 321 319 317 317 317 318 317 314 313 313 313 312 311 311 313 313 308 311 310 311 312 313 312 313 317
312 314 314 315 315 316 315 316 316 317 319 319 318 316 316 315 315 314 315 315 313 313 313 314 312 310 307 306 312 316 312 312 312 312 314 313 312 312
312 312 314 315 315 315 315 315 315 317 316 316 316 316 315 314 313 312 313 313 313 313 313 313 312 312 309 308 309 311 311 313 312 311 311 312 311 313
314 312 314 315 315 315 315 315 314 314 315 315 315 315 315 314 312 312 313 310 311 313 311 312 313 315 314 314 310 307 308 308 314 312 311 306 301 302
317 315 313 313 315 316 315 315 315 314 314 314 314 313 314 313 311 312 311 310 308 308 307 308 311 312 310 308 305 304 302 302 306 310 314 311 304 299
318 318 318 316 315 314 315 315 315 313 312 312 312 310 311 310 309 309 308 308 308 308 308 307 308 310 309 309 307 306 304 302 301 300 301 309 311 311
Wind_Speed
4 4 3 4 4 2 1 2 3 1 4 4 3 7 5 5 8 5 5 8 10 10 10 9 7 7 8 9 8 7 7 7 7 7 7 7 7 8
3 4 4 3 5 2 2 2 3 4 3 3 3 2 8 9 12 9 9 8 10 10 10 10 9 9 9 9 9 9 8 7 7 7 7 8 11 11
5 5 6 5 4 4 2 2 2 3 4 5 3 3 2 5 7 5 6 7 5 10 10 10 10 9 10 10 10 10 9 9 8 8 9 11 11 11
7 7 7 5 6 4 3 5 3 4 4 5 3 3 6 7 6 6 5 4 6 9 10 10 11 10 9 9 9 10 9 9 8 9 11 11 11 10
7 7 7 7 7 5 5 5 3 2 3 3 4 2 3 3 4 4 5 4 3 9 10 12 13 12 11 10 9 8 8 8 8 8 10 11 12 11
9 8 7 7 7 6 6 6 5 5 4 4 4 4 3 5 3 4 2 2 2 3 5 5 9 11 11 10 10 10 9 9 9 9 10 11 12 13
8 8 8 8 11 9 6 6 6 5 4 4 5 2 3 3 4 2 5 3 1 2 2 2 3 3 4 8 9 10 9 9 9 10 10 12 13 13
8 7 7 9 9 10 10 12 8 7 9 6 7 6 9 5 3 3 1 2 2 4 3 4 4 4 5 4 9 11 11 10 9 10 10 12 12 13
5 5 5 4 6 5 6 7 5 9 12 9 10 9 9 8 4 4 5 5 5 4 7 3 3 4 1 4 12 13 13 12 13 13 12 11 11 8
6 6 6 7 7 8 7 7 7 6 5 3 5 9 9 10 7 6 6 4 3 4 7 3 3 3 6 5 11 12 11 11 12 12 13 13 12 12
5 6 6 6 8 8 5 6 7 6 5 9 10 7 8 11 11 2 5 4 4 3 4 4 4 4 3 6 8 16 18 16 15 15 18 19 15 8
5 6 9 9 3 4 3 4 6 5 5 5 5 6 7 7 8 7 4 7 2 3 4 6 5 6 4 3 5 6 7 13 15 16 17 16 12 4
3 4 4 10 8 5 4 4 6 5 8 6 7 7 5 5 5 6 6 6 4 2 7 5 5 4 3 4 3 4 7 7 5 8 13 13 12 8
4 4 5 8 11 12 9 12 11 9 6 6 6 6 5 6 3 2 5 4 1 5 13 7 5 6 6 4 4 5 6 6 6 7 6 9 11 7
3 5 11 11 12 9 11 7 5 3 4 6 5 6 4 3 5 4 8 9 9 6 8 4 8 10 6 7 7 7 10 6 6 7 6 7 6 3
5 5 7 9 11 8 7 5 3 4 4 4 4 4 2 2 3 4 6 6 7 7 9 6 9 9 4 6 7 10 8 7 8 7 6 5 3 5
4 3 3 3 4 5 5 3 3 3 3 4 4 3 2 3 4 5 5 3 5 3 5 6 9 9 7 10 6 9 10 4 9 9 7 6 5 5
1 3 3 4 4 4 5 4 4 4 2 2 2 2 5 4 6 5 5 6 7 6 7 6 8 8 5 5 9 10 7 6 8 7 4 4 4 4
3 2 3 4 4 5 4 4 4 4 5 5 5 5 6 5 6 6 5 7 8 6 6 6 6 7 8 5 3 4 7 6 8 6 7 5 3 4
1 2 3 3 3 4 4 4 4 3 4 4 5 4 5 6 6 6 6 7 7 7 6 5 5 5 7 5 5 3 5 9 7 6 5 3 1 5
2 2 1 1 2 2 3 3 4 3 3 4 4 5 5 5 6 5 6 7 7 6 7 5 4 9 5 7 7 4 3 3 7 7 4 4 3 0
4 4 4 2 2 3 3 3 2 2 3 4 4 4 4 5 6 6 5 5 4 3 3 4 3 3 3 3 5 5 3 1 2 5 10 11 7 5
5 5 4 4 3 3 3 2 2 2 3 3 3 4 4 5 4 4 5 5 5 5 4 3 2 2 2 4 5 4 5 3 3 1 2 3 9 10
Wind_Direction
238 260 250 276 277 258 199 155 154 251 299 284 198 129 156 55 275 219 204 203 196 186 182 183 186 189 186 169 158 155 147 131 117 110 106 97 105 95
249 253 268 260 275 243 255 124 175 177 250 247 297 230 151 185 201 206 189 189 195 190 184 179 181 179 176 174 168 161 152 147 138 131 124 114 101 102
269 258 261 252 258 274 269 204 275 155 208 287 243 233 169 207 181 224 175 176 193 196 181 181 179 177 175 177 173 166 159 153 153 155 141 119 113 114
254 251 254 262 266 254 255 269 221 258 210 269 268 237 213 232 201 195 174 173 175 202 185 178 173 173 174 175 169 165 160 156 147 139 133 129 117 117
246 248 251 247 254 242 235 246 244 246 238 232 272 253 268 243 229 214 187 177 181 183 178 178 168 167 171 171 168 160 154 153 150 144 139 133 130 136
231 235 242 237 241 240 242 239 236 238 238 251 256 253 226 252 203 206 200 146 153 198 169 183 170 168 162 161 161 157 153 150 148 144 139 131 125 124
234 229 238 240 240 234 235 245 229 238 232 236 256 229 244 280 248 249 232 126 125 151 184 239 166 154 156 153 165 163 152 145 141 134 128 121 117 114
251 239 238 257 260 246 247 248 238 237 247 240 252 241 255 238 199 213 168 161 175 171 194 218 175 159 153 155 150 145 141 137 134 127 121 120 121 119
315 316 312 299 325 326 315 315 292 252 243 259 260 250 256 240 209 213 198 170 194 171 181 181 168 79 24 150 151 145 135 132 124 116 115 117 117 114
304 299 292 290 281 276 277 276 269 266 276 272 227 261 273 271 222 235 209 178 138 163 185 132 64 92 81 71 123 121 113 111 114 108 87 75 71 84
310 318 312 307 304 326 312 288 277 272 272 271 272 277 286 297 281 255 236 165 186 177 155 118 140 87 4 109 114 117 112 107 99 101 100 95 93 71
340 326 313 310 151 19 339 306 301 286 310 324 321 311 294 287 250 225 234 222 175 148 163 108 145 146 145 105 101 105 110 111 119 119 116 115 123 132
273 274 271 296 282 251 231 239 252 271 289 285 285 280 269 268 281 237 215 220 182 186 169 125 153 122 83 126 105 131 127 140 126 125 134 141 162 182
264 265 277 285 292 282 263 262 250 262 273 273 265 266 252 255 248 153 106 85 355 155 158 139 128 147 133 119 141 152 154 159 157 153 169 179 199 200
291 292 301 292 286 278 263 271 285 235 247 257 257 259 264 233 137 132 91 83 63 81 125 120 132 140 139 135 144 164 151 180 173 169 173 187 188 171
331 308 286 280 274 264 288 270 233 232 226 247 265 269 186 167 150 127 102 98 95 71 46 85 124 133 112 111 124 149 160 173 175 173 179 175 191 218
314 286 340 350 347 342 338 281 252 235 232 236 254 272 137 102 93 102 95 69 88 95 84 69 72 74 89 133 131 160 160 147 171 172 177 188 215 230
1 341 0 354 345 339 351 342 353 327 225 199 112 70 82 74 93 79 78 102 106 106 108 107 108 104 99 64 145 151 162 147 166 167 158 186 239 241
62 349 358 357 349 360 360 355 6 9 30 76 91 88 92 87 86 91 98 108 108 111 117 126 133 132 129 115 100 91 140 145 154 167 189 199 199 244
159 56 15 354 3 9 5 3 3 18 49 85 94 105 100 111 109 109 114 117 122 123 118 118 122 130 130 119 125 117 127 143 168 183 194 191 228 311
120 89 82 9 39 36 25 29 28 28 39 76 82 94 105 108 103 109 111 116 115 117 116 119 143 137 122 108 114 130 160 204 186 183 172 162 163 169
164 166 166 154 124 88 66 50 70 73 85 75 76 79 93 106 112 117 110 105 100 95 72 63 71 79 62 110 134 131 141 273 48 136 186 172 164 177
178 174 172 166 154 120 114 114 104 93 97 112 111 104 110 110 119 127 126 129 126 108 105 100 65 53 137 137 145 149 147 170 173 193 305 260 185 183